Location: Saint Louis
(38.6272°N, 90.1978°W)
Time: 14:37:44
(UTC-05:00)

ISS - Pass Details

Date: 14 October 2013
Orbit: 402 x 404 km, 51.6° (Epoch: 24 May)

Event Time Altitude Azimuth Distance (km) Brightness Sun altitude
Rises 19:25:04 0° 292° (WNW) 2,420 2.0 -12.8°
Reaches altitude 10° 19:28:32 10° 328° (NNW) 1,542 0.0 -13.5°
Maximum altitude 19:29:42 11° 348° (NNW) 1,459 -0.4 -13.7°
Drops below altitude 10° 19:30:52 10° 8° (N) 1,535 -0.5 -13.9°
Enters shadow 19:32:13 - 26° (NNE) 1,788 -0.3 -14.2°
